This is the latest recevied weather packets stored in our database for station/object YD2CLX-13. If no packets are shown the sender has not sent any weather packets the latest 10 day(s).
| Time | Temp. | Humidity | Pressure | Rain* | Wind** | Luminosity | Snow |
|---|---|---|---|---|---|---|---|
| 1777790692 | 12.22° C | 69% | 796.4 hPa | 0 mm | - | - | - |
| 1777790083 | 12.22° C | 69% | 796.6 hPa | 0 mm | - | - | - |
| 1777789475 | 12.22° C | 69% | 796.8 hPa | 0 mm | - | - | - |
| 1777788865 | 12.22° C | 69% | 797 hPa | 0 mm | - | - | - |
| 1777788257 | 12.78° C | 69% | 797 hPa | 0 mm | - | - | - |
| 1777787649 | 12.78° C | 69% | 797.2 hPa | 0 mm | - | - | - |
| 1777787039 | 12.22° C | 69% | 797.3 hPa | 0 mm | - | - | - |
| 1777786432 | 12.78° C | 69% | 797.3 hPa | 0 mm | - | - | - |
| 1777785822 | 12.78° C | 69% | 797.3 hPa | 0 mm | - | - | - |
| 1777785213 | 13.89° C | 69% | 797.4 hPa | 0 mm | - | - | - |
| 1777784604 | 13.33° C | 69% | 797.5 hPa | 0 mm | - | - | - |
| 1777783386 | 13.33° C | 68% | 797.7 hPa | 0 mm | - | - | - |
| 1777782777 | 13.33° C | 68% | 797.7 hPa | 0 mm | - | - | - |
| 1777782169 | 14.44° C | 69% | 797.8 hPa | 0 mm | - | - | - |
| 1777781561 | 15° C | 69% | 797.9 hPa | 0 mm | - | - | - |
| 1777780950 | 13.89° C | 69% | 798 hPa | 0 mm | - | - | - |
| 1777780341 | 14.44° C | 69% | 798 hPa | 0 mm | - | - | - |
| 1777779733 | 14.44° C | 69% | 798.1 hPa | 0 mm | - | - | - |
| 1777779124 | 13.33° C | 69% | 798.1 hPa | 0 mm | - | - | - |
| 1777778516 | 13.33° C | 69% | 798.2 hPa | 0 mm | - | - | - |
| 1777777906 | 13.33° C | 69% | 798.1 hPa | 0 mm | - | - | - |
| 1777777298 | 13.89° C | 70% | 798.1 hPa | 0 mm | - | - | - |
| 1777776689 | 13.33° C | 70% | 798.3 hPa | 0 mm | - | - | - |
| 1777776081 | 13.89° C | 70% | 798.3 hPa | 0 mm | - | - | - |
| 1777775470 | 13.33° C | 70% | 798.4 hPa | 0 mm | - | - | - |
* Rain latest hour (hover to see other rain measurements)
** Current wind speed in m/s (hover to see current wind gust speed)